Dewpoint
70 66 67 66 66 66 66 64 57 58 55 51 50 52 57 60 61 61 60 62 60 63 63 59 58 58 58 54 56 58 59 57 57 52 54 65 69 68 69 70 72 70 70 72 74 74 73 74 75 75 74 74 74 75 75 75 75 75 75 75 75 76 76 76 76 76 76 75 75 75 75 75 75 75 75 76 76 76 75 75 75 74 75 75 74 74 74 74 74 75 74 74 74 74 74 74 74
66 66 66 67 67 67 63 62 56 54 53 50 52 54 59 61 61 59 59 61 60 60 58 57 57 60 60 61 56 55 57 60 58 59 61 67 67 67 68 69 69 70 71 71 73 72 73 74 74 74 74 74 75 75 75 76 76 75 75 76 76 76 76 76 76 76 75 75 75 74 74 74 73 74 75 76 76 75 74 75 75 75 74 74 74 74 74 74 75 74 74 74 74 74 74 74 74
65 65 65 67 66 68 64 61 54 51 50 49 53 57 61 60 59 59 62 63 62 59 57 56 58 60 59 58 55 55 55 60 60 60 62 67 66 68 67 68 69 72 72 72 72 73 73 74 73 73 74 74 75 75 76 76 76 76 76 76 76 76 76 76 75 75 75 75 75 75 75 75 76 75 75 75 75 74 75 74 74 74 74 74 74 74 74 74 74 74 74 74 74 74 74 74 74
66 66 65 65 62 65 59 56 54 52 51 50 53 58 60 59 59 63 65 63 60 57 56 57 59 63 58 57 54 56 58 58 60 62 63 64 65 67 67 68 70 71 70 71 72 72 73 73 73 73 73 74 75 76 76 76 76 76 75 76 76 76 76 76 75 75 75 75 75 75 75 75 75 75 75 75 74 74 74 74 74 74 74 74 74 74 74 74 74 74 74 74 73 73 73 74 74
66 67 66 66 64 60 58 57 55 53 49 51 54 58 61 60 62 64 64 60 59 58 59 57 57 63 65 63 61 56 59 59 59 62 61 64 66 67 68 68 68 69 70 69 72 73 73 73 73 74 73 74 75 76 76 76 75 75 75 76 76 75 76 75 75 75 75 75 75 75 75 75 75 75 75 74 74 74 74 74 74 74 74 74 74 74 74 75 75 74 75 74 74 74 74 74 74
66 67 68 67 61 66 60 56 55 53 54 56 54 57 62 62 63 64 61 60 62 60 58 58 57 57 58 60 60 58 59 58 60 61 64 64 66 67 68 68 67 68 69 72 73 73 73 74 74 74 73 74 75 76 75 76 75 75 76 75 75 75 75 75 75 75 75 75 75 75 74 75 75 75 74 74 75 74 74 74 74 73 73 74 75 74 75 75 75 74 74 74 74 74 74 74 74
65 64 65 65 64 63 58 54 53 53 59 59 58 59 62 63 64 63 60 60 59 60 61 59 58 58 57 60 60 63 64 61 60 61 65 65 66 67 67 67 68 69 70 72 74 74 74 73 74 74 73 75 76 76 75 76 75 75 75 75 76 76 75 75 74 75 75 74 75 75 74 74 75 75 74 74 75 74 74 74 74 74 74 74 74 74 74 74 74 74 74 74 73 74 74 74 73
67 65 62 61 60 60 56 56 53 53 58 62 62 61 63 65 64 62 60 59 58 59 58 58 58 60 60 61 61 63 62 62 62 64 66 66 67 67 67 67 68 68 69 72 74 73 75 74 74 75 75 76 76 76 76 76 75 75 75 76 76 75 75 75 75 75 74 74 74 74 74 74 74 74 74 74 74 75 74 75 74 74 74 74 75 75 74 74 74 75 75 74 73 74 74 73 73
66 66 67 62 59 58 55 54 55 59 60 63 63 65 65 65 64 62 61 61 60 60 59 57 59 59 59 61 61 63 62 64 64 67 66 66 66 66 66 66 66 67 69 70 73 71 73 76 75 76 76 76 76 76 76 76 75 76 75 75 75 75 75 75 75 75 74 74 74 74 73 74 73 73 74 74 75 75 74 74 74 75 75 75 75 75 75 74 74 74 74 74 74 74 74 73 73
65 67 63 60 58 54 55 54 53 60 60 63 62 64 65 65 64 63 62 60 61 58 59 58 61 62 60 59 61 61 62 64 64 65 66 66 66 66 66 66 67 67 67 69 70 70 72 76 75 75 75 76 76 76 75 75 75 75 75 75 75 75 75 75 74 75 74 74 75 75 74 73 74 73 74 74 74 74 74 74 75 75 75 75 75 75 74 75 74 74 74 74 74 74 74 74 73
66 64 65 60 56 54 53 55 58 62 62 64 64 66 65 65 63 63 63 63 60 58 57 59 58 59 59 62 64 64 64 64 64 64 65 66 67 66 66 67 67 67 67 67 68 70 72 74 76 75 75 75 75 75 75 75 75 74 75 74 75 75 74 74 74 74 75 74 74 74 74 74 74 73 73 73 73 74 73 74 74 75 74 75 75 75 74 74 74 73 74 74 74 73 73 73 74
63 61 63 56 54 53 54 54 59 61 62 63 65 65 66 65 64 62 62 61 59 57 58 58 59 60 59 59 62 63 63 63 63 64 66 66 66 66 67 67 67 66 66 67 68 70 73 74 76 75 75 75 75 75 76 76 75 76 75 75 75 75 75 74 74 74 74 74 74 75 74 73 73 72 73 73 73 74 73 73 73 74 75 74 74 75 75 74 74 74 74 74 74 74 73 73 74
63 62 60 59 55 55 54 58 60 61 62 62 64 65 66 65 63 64 63 62 60 57 59 61 58 59 58 60 63 62 62 62 64 65 65 65 66 66 67 66 66 66 67 68 68 71 73 74 74 74 75 75 75 75 75 75 75 75 75 75 75 74 75 74 74 74 74 75 75 74 75 74 73 74 74 73 74 74 74 73 74 74 74 74 74 73 74 75 74 74 74 74 74 74 74 74 74
62 63 62 57 57 55 55 59 61 60 61 64 64 67 67 64 63 64 61 62 61 60 59 62 58 60 62 60 62 60 60 63 64 65 65 66 66 66 66 66 66 67 67 68 71 72 72 72 72 75 75 76 77 76 75 75 75 75 75 74 75 75 75 74 74 74 74 75 75 75 75 75 75 74 73 74 74 74 74 74 74 74 74 74 74 74 74 74 74 74 74 74 74 74 73 73 74
64 64 61 59 55 56 57 55 58 58 59 62 65 65 65 65 65 65 63 61 62 64 62 60 60 59 58 57 59 58 61 63 64 65 65 66 66 66 66 66 67 67 67 68 71 72 72 72 72 75 76 75 75 75 75 76 75 75 75 75 75 74 74 74 74 75 74 74 74 75 75 75 75 75 75 74 74 74 74 73 74 74 74 74 73 74 74 74 75 74 74 74 74 74 74 74 73
64 66 61 58 53 54 55 56 59 58 59 62 65 65 64 66 66 64 64 64 62 63 59 60 60 60 59 58 58 59 62 63 64 64 66 66 67 67 66 66 66 67 68 69 70 72 73 73 74 74 76 76 75 74 75 76 75 75 75 75 74 75 74 74 74 75 74 74 74 75 75 75 75 74 75 74 74 74 74 73 74 74 74 73 73 74 74 73 74 74 74 74 74 74 74 74 74
64 65 60 56 52 55 56 57 57 60 60 63 66 65 63 64 66 68 68 66 61 60 61 60 59 60 59 60 59 61 62 62 64 65 65 66 66 65 66 67 67 68 68 70 71 71 72 74 74 74 76 75 74 74 74 76 76 76 76 75 75 75 75 74 75 75 75 75 75 75 75 74 75 75 75 75 74 74 73 74 74 74 74 73 73 74 74 74 74 74 74 74 74 74 74 74 74
65 63 56 54 54 56 58 58 62 60 60 63 64 65 63 64 65 67 64 63 64 62 61 60 60 60 61 61 62 62 62 62 63 63 63 64 65 64 64 65 65 66 68 69 71 71 72 74 74 74 75 76 75 75 74 75 76 76 77 76 76 76 76 75 75 76 75 76 75 75 75 73 74 75 75 75 75 74 74 74 74 74 74 74 74 74 74 74 74 74 74 74 74 74 73 72 73
63 61 58 58 55 56 61 60 63 63 60 64 65 65 64 65 65 66 63 62 62 61 61 61 60 61 62 63 62 62 62 62 63 62 62 63 63 63 63 66 65 65 66 67 69 70 73 73 73 73 74 76 75 75 74 75 76 77 78 76 76 76 77 77 77 75 75 77 77 77 76 76 75 76 76 75 75 75 74 74 75 75 74 74 74 74 74 74 74 74 74 74 74 74 73 73 72
60 61 58 58 59 58 63 62 63 65 64 64 65 65 64 65 66 66 63 61 61 59 58 59 58 59 61 62 62 62 62 62 62 61 60 62 62 62 63 64 64 66 65 66 68 70 72 72 73 74 75 75 75 74 75 75 75 77 75 75 75 76 76 76 77 75 76 76 76 76 75 77 76 76 74 75 75 75 74 74 74 75 75 74 74 73 73 74 74 74 74 74 73 73 72 69 70
62 61 62 57 59 57 59 65 64 64 66 65 65 65 65 66 66 67 64 60 61 60 55 56 58 59 60 61 61 62 62 61 61 60 60 60 60 60 61 62 63 65 65 67 69 70 71 72 73 75 76 76 75 74 74 75 76 74 75 75 76 75 75 75 75 76 76 77 76 75 74 75 75 75 76 75 74 75 75 75 74 75 75 74 73 74 74 74 74 74 74 74 74 73 72 72 70
59 57 57 58 57 55 58 64 65 63 66 66 66 64 63 67 66 66 64 60 59 60 57 56 58 61 61 61 61 62 61 61 60 61 60 60 60 60 60 61 62 64 66 67 68 70 70 71 72 74 74 75 75 74 74 75 75 74 75 75 76 76 75 75 75 75 75 75 73 73 74 75 74 75 76 75 75 75 74 73 73 74 74 73 73 74 74 74 73 74 74 73 71 72 71 72 72
56 55 55 54 52 53 53 57 65 66 66 66 65 65 66 65 64 66 63 63 65 63 60 58 58 61 61 61 61 61 61 61 60 60 60 58 60 59 60 61 62 63 65 68 69 69 70 71 72 72 73 75 75 75 75 74 74 74 75 75 75 75 75 75 74 74 75 76 74 74 72 72 73 73 74 74 74 74 73 73 73 73 73 73 72 73 73 73 75 75 73 74 73 71 71 72 72
57 53 52 54 49 48 48 52 62 64 66 65 66 68 64 65 62 66 64 66 66 64 62 59 59 61 61 61 61 60 60 61 60 61 60 58 59 59 61 62 62 64 65 67 67 69 70 69 72 72 73 74 74 75 75 73 75 74 74 74 75 74 74 73 72 73 74 74 75 74 74 73 72 72 74 74 74 74 73 72 73 71 71 71 73 72 72 70 74 74 73 73 72 71 70 72 71
54 53 50 49 48 48 47 50 58 64 66 67 67 65 65 65 65 63 64 65 64 63 60 60 60 60 60 61 60 60 61 61 60 59 58 59 59 60 61 61 62 63 64 66 67 68 69 70 71 71 72 73 72 73 73 74 74 74 74 73 72 73 73 71 72 73 72 72 74 75 75 73 73 74 74 74 74 74 74 72 70 71 72 71 72 71 73 72 72 71 72 72 72 72 70 71 71
54 51 49 45 43 45 42 50 56 62 66 67 65 64 65 63 66 63 66 66 65 63 61 60 60 60 60 60 60 61 62 61 60 59 59 59 59 60 60 60 61 61 64 65 67 69 69 70 69 70 70 71 71 70 74 74 73 73 74 74 74 74 72 72 72 70 73 73 73 76 75 74 72 72 74 74 74 75 73 72 72 72 74 74 73 73 73 72 72 72 72 72 71 72 71 71 70
49 45 43 41 45 49 46 50 56 61 65 66 64 65 65 65 64 62 66 66 64 64 61 60 60 59 60 60 60 61 61 60 60 60 59 59 60 61 60 59 60 62 64 64 66 68 70 69 69 71 71 73 71 70 74 74 73 72 73 73 74 73 72 73 72 71 72 72 74 78 77 76 74 74 74 74 73 74 73 73 72 74 74 74 74 74 75 74 73 73 74 72 72 72 72 71 69
44 43 42 43 52 51 51 53 57 62 63 65 65 64 65 65 63 63 65 66 66 65 60 60 59 60 60 60 60 62 61 61 62 60 60 60 61 60 59 60 61 62 64 64 66 69 68 68 68 70 70 72 72 70 73 72 72 72 74 73 72 73 73 72 72 73 74 74 76 77 78 76 75 75 76 75 74 73 73 71 73 75 74 75 75 75 76 75 74 76 76 76 76 74 73 72 71
43 42 40 50 54 54 54 54 58 60 63 63 65 63 62 64 60 63 64 65 65 65 62 60 59 60 60 60 61 62 61 62 62 60 59 60 61 59 57 59 60 63 64 64 66 67 66 67 69 71 70 73 73 70 70 71 71 71 72 72 73 72 72 72 72 73 74 75 77 77 78 78 78 76 76 76 75 73 73 75 74 76 76 76 76 76 76 76 74 74 75 76 74 73 72 72 71
43 42 38 43 50 53 57 58 58 58 61 63 63 55 56 61 62 63 64 65 65 63 62 59 60 60 60 60 61 61 61 62 61 60 60 60 60 58 58 59 61 62 64 66 66 65 66 66 67 68 70 71 72 70 71 70 71 71 71 72 73 72 71 72 73 74 74 75 76 78 77 78 77 77 76 77 75 73 75 75 75 75 75 76 75 75 74 74 73 73 73 72 72 72 71 72 70
42 40 40 42 42 52 57 58 58 57 61 62 61 53 54 61 63 64 64 66 62 61 60 59 59 60 60 60 60 60 60 63 61 60 60 61 60 59 59 59 61 62 65 64 66 66 68 68 66 66 70 70 72 72 71 71 71 71 71 71 71 72 73 73 70 73 73 74 74 76 77 77 78 78 77 76 74 73 73 74 74 74 75 75 74 74 74 74 74 73 72 72 72 71 71 72 71
40 39 39 41 39 53 59 59 57 56 61 61 59 53 52 55 61 64 66 65 64 62 60 59 60 60 60 60 60 58 59 60 60 59 60 61 61 60 60 60 61 62 64 65 65 66 67 68 69 67 68 70 71 71 72 72 71 72 71 71 72 73 72 72 71 71 73 73 76 77 78 77 78 79 78 77 75 73 73 73 73 76 75 75 74 74 74 74 73 73 72 72 71 69 72 71 72
41 39 40 38 41 44 55 57 57 58 59 60 58 56 55 54 57 61 65 66 65 62 60 60 60 60 60 60 60 59 59 59 60 59 61 62 62 60 61 62 62 63 63 64 66 67 68 68 70 66 67 68 70 70 72 73 73 73 72 71 71 73 71 71 72 73 73 73 76 76 78 76 78 79 78 78 75 74 74 74 74 75 75 74 74 74 73 72 73 70 73 74 74 72 69 68 70
41 39 36 40 41 48 56 57 58 58 59 59 58 56 59 59 58 59 63 65 64 61 60 60 60 60 61 61 60 59 60 60 60 61 61 62 61 62 61 65 64 64 65 64 66 67 67 68 69 67 68 68 70 71 72 72 73 73 72 72 73 72 71 71 72 73 73 72 72 73 77 76 77 79 79 78 76 75 75 75 74 74 74 74 74 74 73 72 73 72 73 74 73 73 70 69 69
37 39 34 34 41 48 51 54 56 58 58 56 59 57 59 60 60 59 62 65 64 61 60 61 60 60 61 60 60 60 61 61 60 62 61 61 60 63 62 65 64 65 64 64 67 69 68 69 70 71 69 69 70 72 73 73 73 74 71 73 72 73 74 72 72 73 72 73 71 76 79 77 76 78 78 77 76 75 75 75 75 74 74 74 74 73 72 73 74 74 72 73 74 74 73 72 71
38 38 36 33 37 38 48 48 52 56 56 55 58 56 56 60 60 61 60 63 63 62 61 62 61 60 61 61 60 60 61 60 61 61 60 60 62 62 63 64 64 65 65 66 69 69 70 71 70 72 72 69 71 71 72 70 71 70 69 71 72 73 73 72 73 72 73 71 73 75 77 77 78 78 77 76 76 75 74 74 74 74 73 73 73 72 72 73 74 74 74 74 73 72 72 72 71
34 34 32 31 32 32 32 38 45 49 53 50 54 53 54 56 58 58 60 60 61 61 61 61 62 62 60 60 60 60 61 59 60 61 61 61 61 63 63 65 64 65 67 67 69 69 70 70 71 72 72 71 71 70 71 69 69 69 70 68 68 69 72 72 72 72 72 71 75 76 77 76 78 77 76 76 76 75 76 75 75 74 73 74 73 73 74 74 75 75 74 75 74 73 71 70 69
36 36 35 31 31 29 31 35 39 46 49 46 47 47 51 56 60 60 59 60 59 60 61 62 62 61 61 61 61 61 62 60 60 61 60 61 61 63 63 64 66 65 68 68 69 69 71 70 71 72 72 72 71 70 71 70 71 70 69 69 66 66 70 70 71 72 70 71 76 77 77 77 78 77 76 77 76 76 76 74 74 74 74 74 74 74 74 74 75 75 75 73 75 72 71 69 68
37 36 36 33 31 31 36 39 40 47 47 45 40 46 47 58 59 58 58 59 59 59 61 62 62 62 62 61 61 62 61 60 60 61 61 61 62 62 63 64 64 65 67 68 69 69 71 70 72 73 72 73 72 72 72 71 71 72 69 69 67 66 68 70 69 71 72 71 74 77 77 78 77 77 77 76 76 75 76 75 75 75 75 74 74 73 74 75 76 75 76 74 70 71 72 70 71
36 36 35 34 30 29 29 36 40 44 46 46 44 42 44 54 60 59 57 59 60 60 60 62 64 62 62 61 61 61 61 61 60 61 60 60 62 63 64 65 65 64 67 67 68 69 70 71 72 73 73 73 73 73 73 72 72 74 73 72 71 70 69 71 73 73 73 72 73 76 77 78 76 76 76 75 76 75 76 76 75 75 75 76 75 74 75 76 77 76 74 73 73 69 68 68 68
38 36 35 32 32 30 30 34 41 42 44 45 45 45 45 51 54 62 60 59 61 60 60 62 64 64 63 64 64 63 61 62 61 61 61 60 62 62 64 66 65 65 66 67 67 67 67 70 73 74 74 72 73 74 74 74 74 75 73 74 73 72 73 71 71 70 72 73 73 73 75 76 76 75 75 75 76 76 77 77 76 76 75 76 76 76 75 74 75 75 76 73 73 70 66 65 67
36 37 36 34 33 32 30 29 31 42 44 47 42 43 47 47 52 56 60 59 59 61 62 62 64 64 63 62 63 63 64 63 63 62 61 61 62 63 65 66 65 65 66 67 66 66 68 70 73 74 74 73 73 75 75 75 74 72 71 71 70 70 70 70 69 69 69 70 68 71 74 73 74 75 75 75 74 75 76 77 77 76 76 76 76 74 75 75 76 74 74 74 71 71 72 65 64
34 35 37 35 34 32 31 30 28 29 34 38 37 40 43 43 48 56 59 58 57 59 61 61 63 65 64 63 62 62 61 61 62 61 61 60 62 63 64 66 64 64 65 66 67 67 69 71 73 74 74 74 73 75 75 75 74 72 72 70 69 70 69 70 71 69 70 70 72 73 74 74 75 74 74 75 74 75 75 76 77 77 76 77 76 76 76 74 72 74 73 73 73 74 72 69 66
32 32 34 34 33 31 31 30 29 30 27 27 34 37 35 46 46 55 59 59 58 59 59 60 61 63 62 63 61 62 61 61 61 62 62 61 63 63 64 65 64 63 64 65 66 67 70 73 74 75 74 74 74 75 75 75 73 72 73 71 70 70 69 70 72 72 72 73 73 74 74 74 76 75 74 75 75 75 76 76 76 76 76 75 75 75 74 73 74 75 75 75 75 73 73 70 68
29 31 30 29 30 30 30 30 29 28 26 29 33 38 36 42 52 55 56 57 56 57 59 60 61 62 63 63 61 61 60 61 61 61 61 62 63 63 64 65 65 63 63 65 67 68 70 73 74 75 75 75 75 76 76 75 74 73 73 71 71 71 71 70 72 72 71 73 73 74 76 75 75 76 75 74 76 75 75 75 76 76 75 76 75 74 73 74 75 76 76 75 74 74 72 72 71
31 30 28 28 29 29 29 29 28 29 29 29 32 32 38 42 47 49 49 50 50 52 53 55 61 62 63 62 63 62 61 62 61 61 62 62 62 63 63 65 65 63 63 65 67 68 70 72 75 75 75 75 75 76 76 76 74 74 73 72 72 72 72 71 71 71 72 73 73 74 75 76 74 74 75 76 76 76 75 76 75 75 74 73 73 73 73 74 75 76 75 74 74 73 74 72 72
30 29 25 25 26 28 30 30 31 29 28 31 26 31 30 43 45 46 48 50 50 51 54 54 57 61 62 63 64 62 63 61 61 61 61 62 62 63 64 64 65 65 64 65 66 67 68 71 74 75 75 75 75 76 76 76 75 74 74 73 73 73 73 73 72 73 73 73 73 73 74 75 75 74 74 75 75 75 76 76 75 74 74 75 74 74 73 72 71 72 74 76 75 75 73 72 72
29 26 24 23 26 29 31 29 31 28 27 30 23 27 27 30 44 46 52 52 52 51 53 55 55 57 59 63 61 61 63 62 61 61 61 62 63 63 63 64 65 66 65 66 66 67 69 71 74 75 76 76 75 75 76 75 74 74 73 73 73 73 74 72 73 72 72 73 73 72 74 74 74 74 75 75 74 73 76 76 76 76 76 76 75 74 74 73 72 73 74 75 75 75 75 73 73
26 25 26 22 26 26 26 28 26 26 26 27 20 24 28 43 47 48 50 51 51 53 52 54 55 56 58 59 63 63 62 63 63 62 62 61 62 63 63 65 66 67 67 67 66 66 68 71 74 75 75 76 76 75 75 75 75 74 73 73 74 74 74 74 73 72 72 72 73 73 74 74 74 74 74 74 74 75 76 76 76 76 77 77 77 77 76 76 76 74 76 74 74 75 74 73 72
24 23 24 23 24 21 24 25 26 25 26 20 21 25 30 45 47 49 49 51 53 53 54 55 54 57 59 59 59 62 63 64 63 62 62 62 62 62 64 64 65 66 66 66 67 67 69 70 73 74 75 76 76 76 75 75 75 75 75 74 73 73 74 74 73 71 71 72 73 73 72 72 73 73 72 74 73 74 75 76 77 77 78 78 78 78 79 78 77 75 75 75 74 74 74 74 74
22 22 20 23 27 19 23 24 22 22 25 20 32 25 38 39 47 47 48 51 53 53 54 57 57 56 58 58 60 60 63 64 64 64 62 62 62 63 63 64 64 66 66 66 67 69 70 71 73 74 75 76 76 76 76 75 75 75 75 74 73 73 72 72 72 71 72 71 71 72 73 72 72 73 72 74 74 74 75 76 76 76 77 79 78 79 77 78 78 76 76 77 75 75 74 74 73
19 21 22 21 23 24 18 20 20 22 22 24 27 30 36 42 49 47 49 48 50 52 53 55 56 57 58 57 59 59 60 61 63 63 63 64 63 64 63 63 64 65 67 66 67 68 69 71 73 74 75 75 76 76 75 75 75 75 75 75 74 73 73 72 72 73 73 72 73 72 73 74 74 73 74 74 74 74 74 75 76 76 78 78 79 78 78 76 78 77 77 76 76 74 75 75 74
18 20 20 21 23 22 26 26 23 23 23 27 28 40 44 46 46 46 47 47 49 51 51 53 54 55 57 57 57 59 60 60 61 61 63 65 64 64 64 64 63 64 65 66 68 69 70 71 72 74 75 75 75 76 75 75 76 75 75 75 74 73 72 71 69 71 69 71 73 73 71 72 73 74 74 73 74 75 75 74 73 73 75 77 77 77 77 77 79 77 76 77 76 74 75 75 73
19 18 19 23 22 22 27 19 25 21 20 23 27 34 41 37 41 47 47 46 48 49 50 51 54 55 55 56 58 59 59 60 62 62 64 64 64 64 63 63 63 64 65 66 68 68 70 71 71 73 74 74 74 74 74 74 75 75 75 75 75 73 71 70 69 69 71 71 72 73 71 70 71 71 71 68 72 74 74 75 74 74 74 75 76 75 76 77 77 76 77 78 76 77 77 77 76
19 18 21 19 21 21 24 26 19 17 17 24 28 32 37 34 43 46 47 46 47 49 51 51 52 53 55 56 58 60 60 59 61 61 62 63 65 66 66 64 63 64 66 66 66 67 68 70 70 70 72 72 72 72 73 74 74 73 73 74 74 73 71 70 69 70 71 70 69 70 70 69 70 71 73 74 73 72 73 75 75 73 73 75 75 75 76 76 77 76 76 75 76 78 77 77 77
20 20 19 22 24 22 23 23 27 20 13 24 34 35 39 43 46 47 50 50 49 48 48 49 51 52 54 56 58 59 60 60 60 61 62 62 62 63 63 64 63 63 63 64 64 65 66 67 69 69 70 72 73 72 73 73 73 73 72 74 75 75 74 71 70 70 70 70 70 69 70 67 70 69 70 73 72 71 71 71 72 70 70 72 73 73 73 75 76 75 74 73 73 77 76 76 75
17 18 18 20 22 23 24 22 23 20 19 20 30 28 36 42 46 48 50 51 50 49 50 51 51 53 54 56 58 60 60 61 61 62 63 63 63 63 63 64 64 64 64 63 63 64 65 65 66 67 69 69 70 70 71 73 73 73 73 74 73 74 72 70 69 70 71 71 71 71 68 68 70 70 70 70 72 72 72 71 69 71 69 72 74 73 73 74 75 75 75 75 74 76 77 75 75
17 17 18 17 20 21 22 23 22 22 23 23 24 28 40 43 48 49 51 51 50 50 50 50 52 52 54 55 57 59 59 61 62 61 62 63 65 66 63 63 64 65 66 63 63 63 64 64 64 66 66 67 68 69 71 73 73 73 72 72 73 72 72 71 69 68 71 70 70 70 70 70 68 71 71 69 71 70 71 71 69 70 71 70 73 75 72 73 74 74 75 72 73 75 76 75 74